Home   Weather   Colonia   Past weeks

Flag for Micronesia Past Weather in Colonia, Yap, Micronesia — Yesterday and Last 2 Weeks

Now
84 °F

Broken clouds.


Feels Like: 93 °F
Forecast: 78 / 84 °F
Wind: 9 mph from Northeast

Location: Yap Island

Current Time: Dec 10, 2016 at 5:16:07 pm

Latest Report: Dec 10, 2016 at 3:50 pm


Visibility: 12 mi

Pressure: 29.71 "Hg

Humidity: 76%

Dew Point: 76 °F

Location of ColoniaLocation

Past Weather in Colonia — Graph

°F

Colonia Temperature Yesterday

Maximum temperature yesterday: 87 °F (at 11:51 am)
Minimum temperature yesterday: 79 °F (at 2:52 am)
Average temperature yesterday: 83 °F

High & Low Weather Summary for the Past Weeks

 TemperatureHumidityPressure
High88 °F (Dec 4, 11:50 am)95% (Nov 26, 1:54 am)29.88 "Hg (Nov 26, 1:54 am)
Low76 °F (Nov 26, 4:50 am)73% (Nov 25, 3:53 pm)29.71 "Hg (Nov 25, 3:53 pm)
Average82 °F86%29.79 "Hg
* Reported Nov 25 3:53 pm — Dec 10 3:50 pm, Colonia, Weather by CustomWeather, © 2016

Note: Actual official high and low records may vary slightly from our data, if they occured in-between our weather recording intervals... More about our weather records

Advertising

Colonia Weather History for the Previous 24 Hours

Scroll right to see more
 ConditionsComfort  
Time TempWeatherWind HumidityBarometerVisibility
3:50 pm
Sat, Dec 10
84 °FBroken clouds.9 mph76%29.71 "Hg12 mi
2:53 pm85 °FScattered clouds.9 mph75%29.72 "Hg12 mi
1:51 pm86 °FScattered clouds.10 mph73%29.73 "Hg12 mi
12:52 pm86 °FScattered clouds.12 mph74%29.75 "Hg12 mi
11:51 am85 °FScattered clouds.9 mph75%29.76 "Hg12 mi
10:51 am86 °FScattered clouds.14 mph75%29.79 "Hg12 mi
9:52 am85 °FScattered clouds.12 mph76%29.80 "Hg12 mi
8:50 am83 °FScattered clouds.8 mph82%29.80 "Hg12 mi
7:51 am81 °FPassing clouds.8 mph87%29.78 "Hg12 mi
6:53 am80 °FPartly cloudy.3 mph91%29.75 "Hg12 mi
5:53 am80 °FPartly cloudy.3 mph89%29.75 "Hg12 mi
3:53 am79 °FPartly cloudy.3 mph89%29.72 "Hg12 mi
1:52 am81 °FPartly cloudy.3 mph88%29.75 "Hg12 mi
12:50 am81 °FPartly cloudy.5 mph88%29.76 "Hg12 mi
11:50 pm
Fri, Dec 9
81 °FPassing clouds.6 mph89%29.78 "Hg12 mi
10:50 pm82 °FPassing clouds.6 mph86%29.77 "Hg12 mi
9:53 pm82 °FPassing clouds.6 mph85%29.77 "Hg12 mi
8:50 pm81 °FPassing clouds.6 mph89%29.76 "Hg12 mi
7:50 pm82 °FPassing clouds.6 mph87%29.75 "Hg12 mi
6:50 pm82 °FScattered clouds.8 mph86%29.76 "Hg12 mi
5:50 pm83 °FBroken clouds.9 mph85%29.75 "Hg12 mi
Weather by CustomWeather, © 2016

See weather overviewHow to use our weather pages